Regional Weather Roundup
Issued by NWS

Home | Current Version | Previous Version | Text Only | Print | Product List | Glossary On
Versions: 1 2 3 4 5 6 7 8 9 10 11 12 13 14 15 16 17 18 19 20 21 22 23 24 25 26 27 28 29 30 31 32 33 34 35 36 37 38 39 40 41 42 43 44 45 46 47 48 49 50
000
ASUS44 KFWD 262103
RWRTX
NORTH TEXAS HOURLY WEATHER ROUNDUP
NATIONAL WEATHER SERVICE FORT WORTH TX
400 PM CDT WED JUL 26 2017

NOTE: "FAIR" INDICATES FEW OR NO CLOUDS BELOW 12,000 FEET WITH NO
SIGNIFICANT WEATHER AND/OR OBSTRUCTIONS TO VISIBILITY.

TXZ118-119-262200-
DALLAS/FORT WORTH METROPLEX

CITY           SKY/WX    TMP DP  RH WIND       PRES   REMARKS
DFW AIRPORT    FAIR      97  69  40 S14       29.99F HX 103
DALLAS LOVE    FAIR      97  68  38 S9        29.99F HX 102
FTW MEACHAM    FAIR      97  71  42 S10       29.99F HX 104
DAL-EXECUTIVE  FAIR      96  69  41 S9        30.00F HX 102
FTW-ALLIANCE   FAIR      97  71  42 S8        30.00F HX 104
FTW-SPINKS     MOSUNNY   99  64  32 S8        30.02F HX 101
ARLINGTON      FAIR      96  68  39 S9G23     30.00F HX 101
GRAND PRAIRIE  SUNNY     97  63  32 S10G16    30.02F HX  98
ADDISON        MOSUNNY   95  66  38 S10G17    30.01F HX  98
MESQUITE       MOSUNNY   97  66  36 SE10      30.01F HX 100
LANCASTER      FAIR      96  67  38 S5        30.02F HX 100
$$

TXZ091>094-102>105-117-120-121-131>134-262200-
NORTH CENTRAL TEXAS

CITY           SKY/WX    TMP DP  RH WIND       PRES   REMARKS
SHRMAN/DENISON FAIR      94  73  50 S13       30.02F HX 103
GAINESVILLE    FAIR      93  73  51 SE15      30.03F HX 102
BOWIE          FAIR      95  72  47 SE9G17    30.00F HX 103
BRIDGEPORT     FAIR      96  69  41 S8        30.01F HX 101
DECATUR        FAIR      94  71  47 S10         N/A  HX 101
DENTON         FAIR      95  74  50 S10       30.00F HX 105
MCKINNEY       FAIR      96  72  45 S13       30.01F HX 104
BONHAM         FAIR      93  73  52 SW12      30.02F HX 102
GREENVILLE     FAIR      97  70  41 S9        30.02F HX 103
ROCKWALL       FAIR      94  71  47 S15G23    30.02F HX 102
TERRELL        FAIR      95  70  44 SW7       30.02F HX 101
WAXAHACHIE     FAIR      96  67  38 S10G20    30.02F HX 100
CLEBURNE       FAIR      97  64  34 S10G20    30.02F HX  99
GRANBURY       FAIR     100  63  29 S8G18     30.01F HX 101
$$

TXZ083>090-098>101-113>116-127>130-139>142-154-155-262200-
WESTERN NORTH TEXAS

CITY           SKY/WX    TMP DP  RH WIND       PRES   REMARKS
WICHITA FALLS  FAIR     101  65  30 S18       29.95F HX 104
WF-KICKAPOO    FAIR     100  66  32 S8G21     29.98F HX 105
VERNON         FAIR     101  56  22 S14G20    29.95F HX 100
ABILENE        FAIR      98  61  29 S13       30.02F HX  98
ABILENE-DYESS  MOSUNNY   98  63  31 S13G23    30.00F HX  99
BRECKENRIDGE   FAIR      98  62  30 S13G21    29.99F HX  99
CISCO          FAIR      97  64  34 S12       30.04  HX  99
EASTLAND       FAIR      96  65  36 S8        30.02F HX  99
RANGER         FAIR      94  65  38 S12       30.03F HX  97
MINERAL WELLS  FAIR      97  66  36 S9G18     29.98F HX 100
STEPHENVILLE   FAIR      97  61  30 S8        30.05F HX  97
COMANCHE       FAIR      97  64  33 SE8       30.03F HX  99
BROWNWOOD      LGT RAIN  97  61  30 SE12G17   30.02F HX  97
COLEMAN        FAIR      97  60  28 S3G16     30.03F HX  97
$$

TXZ143>147-156>162-174-175-262200-
CENTRAL TEXAS

CITY           SKY/WX    TMP DP  RH WIND       PRES   REMARKS
WACO           FAIR     100  66  32 S8        30.00F HX 104
WACO-MCGREGOR  FAIR     101  66  31 S12G20    30.00F HX 105
HILLSBORO      FAIR      99  67  35 S14G20    30.01F HX 103
CORSICANA      FAIR      97  69  40 SE12      30.03F HX 103
MEXIA          FAIR      95  70  44 SW7G22    30.02F HX 101
HEARNE         FAIR      98  68  37 S5        30.02F HX 103
CAMERON        PTSUNNY   99  67  34 S6        30.01F HX 104
TEMPLE         FAIR      99  65  32 SW8G21    30.02F HX 102
KILLEEN        FAIR      97  62  31 S10G20    30.01F HX  98
KILLEEN-SKYLRK FAIR      99  67  35 S9        30.02F HX 103
FORT HOOD      FAIR      98  64  33 S9        29.98F HX 100
HAMILTON       FAIR      99  60  27 S10G16    30.04F HX  99
LAMPASAS       FAIR      98  64  32 S8G20     30.02F HX 100
$$

TXZ095>097-106>112-122>126-135>138-148>153-164>167-262200-
EAST TEXAS

CITY           SKY/WX    TMP DP  RH WIND       PRES   REMARKS
PARIS            N/A     94  75  54 S10       30.03F HX 105
SULPHUR SPRNGS FAIR      95  70  44 SW13      30.05F HX 101
MOUNT PLEASANT FAIR      95  68  41 S10G16    30.04F HX  99
GILMER         FAIR      94  71  48 SE8       30.04F HX 101
MINEOLA        FAIR      95  72  46 SW13      30.03F HX 103
TYLER          FAIR      96  69  41 VRB6      30.03F HX 102
LONGVIEW       FAIR      94  74  52 SW7       30.03F HX 104
MARSHALL         N/A     93  67  42 S7        30.06F HX  96
ATHENS         FAIR      95  68  41 S3        30.02F HX  99
PALESTINE      FAIR      96  72  45 S9        30.05F HX 104
JACKSONVILLE   FAIR      93  72  50 S5        30.08F HX 100
HENDERSON      FAIR      95  70  44 S5        30.06F HX 100
CENTER         HAZE      96  75  51 CALM      30.06F VSB 1/2 HX 107
NACOGDOCHES    PTSUNNY   93  73  52 SW6       30.03F HX 102
LUFKIN         FAIR      92  72  51 S5        30.05F HX  99
$$

SUPPLEMENTAL OBSERVATIONS (NWS FORT WORTH AREA)

CITY           SKY/WX    TMP DP  RH WIND       PRES   REMARKS
$$

SUPPLEMENTAL OBSERVATIONS (NWS NORMAN AREA)

CITY           SKY/WX    TMP DP  RH WIND       PRES   REMARKS
GOODLETT         N/A    104  56  20 S20       29.95F HX 103
ODELL            N/A     99  65  33 SE13      29.97F HX 101
CROWELL          N/A    101  63  28 S15       29.97F HX 103
KNOX CITY        N/A    102  58  23 S13G18    29.98F HX 101
SEYMOUR          N/A    103  59  23 S13G20    29.97F HX 103
$$

SUPPLEMENTAL OBSERVATIONS (NWS SAN ANGELO AREA)

CITY           SKY/WX    TMP DP  RH WIND       PRES   REMARKS
WEINERT          N/A    101  66  31 S14       29.99F HX 104
THROCKMORTON     N/A    101  67  32 S13       30.00F HX 106
STAMFORD         N/A    100  64  31 S13       30.00F HX 103
CLYDE            N/A     97  64  34 S14       30.05F HX  99
$$

SUPPLEMENTAL OBSERVATIONS (NWS SHREVEPORT AREA)

CITY           SKY/WX    TMP DP  RH WIND       PRES   REMARKS
$$

SUPPLEMENTAL OBSERVATIONS ARE A COLLECTION OF AUTOMATED INSTRUMENTS
THAT ARE MAINTAINED BY A VARIETY OF FEDERAL AND STATE AGENCIES.
CERTAIN ELEMENTS...SUCH AS HUMIDITY VALUES AND SUSTAINED WIND
SPEEDS...MAY BE APPROXIMATED.





USA.gov is the U.S. government's official web portal to all federal, state and local government web resources and services.